Regional Weather Roundup
Issued by NWS Grand Forks, ND

Home | Current Version | Previous Version | Graphics & Text | Print | Product List | Glossary On
Versions: 1 2 3 4 5 6 7 8 9 10 11 12 13 14 15 16 17 18 19 20 21 22 23 24 25 26 27 28 29 30 31 32 33 34 35 36 37 38 39 40 41 42 43 44 45 46 47 48 49 50
000
ASUS43 KFGF 020110
RWRFGF
PRAIRIE TO PINES  WEATHER ROUNDUP
NATIONAL WEATHER SERVICE EASTERN NORTH DAKOTA/GRAND FORKS ND
800 PM CDT SAT AUG 01 2015

 **SATELLITE DATA USED TO AUGMENT SKY COVER AT AUTOMATED STATIONS**
 *****  WEATHER ACROSS EASTERN NORTH DAKOTA  *****

CITY           SKY/WX    TMP DP  RH WIND       PRES   REMARKS
GRAND FORKS    CLEAR     82  64  54 S6        29.70F
GRAND FRKS AFB CLEAR     81  65  57 SW6       29.71F
DEVILS LAKE    SUNNY     84  57  39 S7        29.72F
FARGO          CLEAR     83  64  52 SE6       29.72F
WAHPETON ARPT  CLEAR     82  66  57 S6        29.72F
$$

 ***** WEATHER ACROSS CENTRAL AND WESTERN NORTH DAKOTA  *****

CITY           SKY/WX    TMP DP  RH WIND       PRES   REMARKS
BISMARCK       SUNNY     86  59  39 SE6       29.75F
MINOT          SUNNY     85  53  33 SE6       29.69F
JAMESTOWN      CLEAR     83  69  62 CALM      29.74F
MINOT AFB      SUNNY     85  60  42 S6        29.68F
GARRISON         N/A     79  63  57 SE6       29.71F
WILLISTON      SUNNY     94  33  11 NW26G33   29.74R
DICKINSON      SUNNY     87  47  24 W10       29.75F
HETTINGER      SUNNY     90  46  21 S5        29.82F
$$

 *****  OTHER AIRPORT OBSERVATIONS IN OUR AREA  *****

CITY           SKY/WX    TMP DP  RH WIND       PRES   REMARKS
WALHALLA       FAIR      82  61  47 MISG      29.69F
GRAFTON AIRPOR FAIR      82  66  57 W5        29.70F
VALLEY CITY AR FAIR      82  68  61 SE3       29.75S
CANDO          NOT AVBL
CAVALIER APRT  FAIR      81  63  54 SW5       29.69F
GWINNER        FAIR      84  72  65 E5        29.73F
SHEYENNE NWR     N/A     85  72  65 E3        29.95S HX  91
ROLLA            N/A     79  66  65 CALM      29.73F
 ***** THE ABOVE OBSERVATIONS ARE NON NWS ARE NOT QUALITY
       CONTROLLED AND MAY MIS-REPORT RAIN FOR SNOW...
$$

  *****  WEATHER ACROSS NORTHERN MINNESOTA  *****

CITY           SKY/WX    TMP DP  RH WIND       PRES   REMARKS
FLAG ISLAND    PTCLDY    77  54  44 W7        29.69S
WARROAD        PTCLDY    75  63  64 CALM      29.71S
ROSEAU         PTCLDY    75  64  69 SW5       29.70F
HALLOCK        PTCLDY    81  63  54 SW6       29.68F
THF RVR FALLS  PTCLDY    77  63  61 S5        29.73F
BAUDETTE       PTCLDY    75  57  53 SW7       29.71F
WASKISH        MOCLDY    73  61  64 SW6       29.73F
CROOKSTON      CLEAR     79  66  65 S5        29.72F
STEPHEN NDAWN    N/A     81  66  61 SW3         N/A
GREENBUSH NDAW   N/A     79  61  53 W3          N/A
$$
  *****  WEATHER ACROSS CENTRAL AND WEST MINNESOTA  *****

CITY           SKY/WX    TMP DP  RH WIND       PRES   REMARKS
FOSSTON        PTCLDY    79  61  53 CALM      29.76F
BEMIDJI        CLEAR     77  57  48 W8        29.76F
PARK RAPIDS    CLEAR     80  60  50 CALM      29.77F
ELBOW LAKE     FAIR      81  72  74 SE7       29.74F
WADENA         PTCLDY    79  64  61 CALM      29.77S
DETROIT LAKES  CLEAR     79  63  57 S6        29.78S
MOORHEAD       CLEAR     82  66  57 CALM      29.74S
FERGUS FALLS   CLEAR     81  70  69 S6        29.72F
MORRIS MN      CLEAR     81  70  69 S7        29.74F
STAPLES        PTCLDY    79  63  57 S5        29.77F
$$
  *****  WEATHER ELSEWHERE ACROSS MINNESOTA  *****

CITY           SKY/WX    TMP DP  RH WIND       PRES   REMARKS
DULUTH         PTCLDY    76  56  49 SW12      29.77F
INTRNTL FALLS  PTCLDY    74  56  53 W5        29.70F
ELY            PTCLDY    75  50  41 SW9       29.74F
CLOQUET        PTCLDY    75  54  46 SW5       29.78F
WHEATON        CLEAR     79  70  73 S5        29.74F
BRAINERD       CLEAR     77  61  57 S3        29.78F
HIBBING        PTCLDY    76  54  46 SW3       29.76F
ALEXANDRIA     CLEAR     81  70  69 S7        29.78F
SAINT CLOUD    CLEAR     79  67  66 S6        29.77F
MINNEAPOLIS    PTCLDY    84  67  56 S9        29.79F
$$

  *****  WEATHER ACROSS SOUTH DAKOTA  *****

CITY           SKY/WX    TMP DP  RH WIND       PRES   REMARKS
SIOUX FALLS    PTCLDY    81  63  54 SW9       29.84F
BROOKINGS      PTCLDY    79  63  57 S9        29.83F
WATERTOWN      CLEAR     81  66  60 S10       29.78F
HURON          PTCLDY    86  64  47 SW8       29.77F
SISSETON         N/A     83  66  56 SW6       29.72F
ABERDEEN       CLEAR     88  65  46 N7        29.73S HX  90
MITCHELL       PTCLDY    86  64  47 SW9       29.81F
PIERRE         SUNNY     89  46  22 NW9       29.80R
MOBRIDGE       SUNNY     89  61  38 NW3       29.77S
RAPID CITY     SUNNY     86  58  38 S6        29.91F
$$

  *****  SOME WEATHER IN NEARBY STATES *****

CITY           SKY/WX    TMP DP  RH WIND       PRES   REMARKS
GLASGOW MT     SUNNY     89  44  20 N14       29.80R
GREAT FALLS MT SUNNY     94  18   6 W12G18    29.90F
CHEYENNE WY    MOSUNNY   81  45  28 SE5       30.13S
SCOTTSBLUFF NE MOSUNNY   79  57  46 E15       29.99R
OMAHA NE       PTCLDY    83  70  64 SE9       29.89F
DES MOINES IA  PTCLDY    84  71  65 SW6       29.90F
DAVENPORT IA   MOCLDY    79  68  69 SW6       29.93S
CHICAGO IL     MOCLDY    81  61  50 W13       29.89S
EAU CLAIRE WI  CLEAR     77  61  57 SW5       29.81F
LA CROSSE WI   CLEAR     82  65  56 S5        29.83F
$$

  *****  SOME NATIONAL WEATHER *****

CITY           SKY/WX    TMP DP  RH WIND       PRES   REMARKS
LA GUARDIA NY  PTCLDY    82  57  42 NW7       29.81R
RALEIGH NC     PTCLDY    80  63  55 CALM      29.90R
ATLANTA GA     PTCLDY    84  63  49 E3        29.93R
NEW ORLEANS LA PTCLDY    88  65  46 NE10      29.88R HX  90
OKLAHOMA CITY  MOCLDY    83  69  62 SW9       29.97S
ALBUQUERQUE NM PTSUNNY   80  53  39 N18G25    30.12R
SALT LAKE CITY PTSUNNY   92  30  11 W9        29.99F
LOS ANGELES CA MOSUNNY   73  65  75 W13       29.89F
BOISE ID       SUNNY    101  34   9 NW8       29.88F HX  95
SEATTLE WA     MOSUNNY   90  44  20 N10       29.93F
$$

*** WEATHER ACROSS MANITOBA...SASKATCHEWAN AND ONTARIO ***
                ***ONTARIO***

CITY           SKY/WX    TMP DP  RH WIND       PRES   REMARKS
GERALDTON      MOCLDY    57  55  94 SW9       29.64F
THUNDER BAY    MOCLDY    72  54  53 SW5       29.68F
SIOUX LOOKOUT  TSTM      63  61  94 VRB9G17   29.68S
TORONTO        PTCLDY    73  52  46 W12       29.83R
BIG TROUT LK   CLOUDY    61  48  63 NW16G23   29.49R
PICKLE LAKE    PTCLDY    59  55  88 W8        29.60R
DRYDEN         CLOUDY    68  54  60 W12G18    29.68F
KENORA         MOCLDY    70  59  68 NW3       29.70F
$$
                *** MANITOBA***

CITY           SKY/WX    TMP DP  RH WIND       PRES   REMARKS
BRANDON        MOSUNNY   75  59  57 N9        29.71F
DAUPHIN        MOSUNNY   70  64  83 N5        29.73R
ISLAND LAKE    MOCLDY    64  50  59 NW16G28   29.60R
PILOT MOUND      N/A     75  64  69 SW5         N/A
THE PAS        MOSUNNY   70  45  40 NW13      29.73S
THOMPSON       LGT RAIN  57  50  77 N10       29.66R
WINNIPEG       MOCLDY    73  66  78 N6        29.68S
LYNN LAKE      PTSUNNY   63  39  42 N14G28    29.74R
CHURCHILL      LGT RAIN  46  45  93 N23       29.53S FOG
GILLAM         LGT RAIN  52  48  87 NW20      29.55S
$$
                ***SASKATCHEWAN***

CITY           SKY/WX    TMP DP  RH WIND       PRES   REMARKS
ESTEVAN        MOSUNNY   82  57  42 N24G32    29.73R
KINDERSLEY     MOSUNNY   75  50  41 N13       29.93S
LLOYDMINSTER   PTSUNNY   70  52  52 N12G21    29.94R
PRINCE ALBERT  PTSUNNY   66  61  82 NW7       29.83F
REGINA         MOSUNNY   75  54  46 N12       29.84S
YORKTON        PTSUNNY   70  59  68 NW7       29.80R
N. BATTLEFORD  SUNNY     72  55  56 N14G24    29.91R
LA RONGE       MOSUNNY   70  48  46 W9        29.82S
SASKATOON      PTSUNNY   70  57  64 W12       29.88F
SWIFT CURRENT  SUNNY     73  50  43 NE14      29.93R
$$
NOTE: THESE ARE AUTOMATED STATIONS WITH LIMITED QUALITY CONTROL
      "FAIR" INDICATES FEW OR NO CLOUDS BELOW 12,000 FEET WITH NO
      SIGNIFICANT WEATHER AND/OR OBSTRUCTIONS TO VISIBILITY.
      SKY/WX - SKY CONDITION AND SIGNIFICANT WEATHER.
      TMP - AIR TEMPERATURE.    DP   - DEWPOINT TEMPERATURE.
      RH  - RELATIVE HUMIDITY.  PRES - PRESSURE.
      HX  - HEAT INDEX.         WCI  - WIND CHILL INDEX.
$



USA.gov is the U.S. government's official web portal to all federal, state and local government web resources and services.